Teterboro, NJ

1:49 PM EDT on April 26, 2017 (GMT -0400)
Teterboro

Weather History for KTEB - May, 2013

Change the Weather History Date:

Sunday, May 19, 2013

  Actual Average Record
Temperature  
Mean Temperature 57 °F -  
Max Temperature 62 °F 69 °F 88 °F (1998)
Min Temperature 55 °F 49 °F 37 °F (2002)
Degree Days  
Heating Degree Days 8    
Growing Degree Days 7 (Base 50)    
Moisture  
Dew Point 56 °F    
Average Humidity 94    
Maximum Humidity 100    
Minimum Humidity 75    
Precipitation  
Precipitation 0.26 in - - ()
Sea Level Pressure  
Sea Level Pressure 30.26 in    
Wind  
Wind Speed 6 mph (SE)    
Max Wind Speed 12 mph    
Max Gust Speed 38 mph    
Visibility 4 miles    
Events Rain    
Averages and records for this station are not official NWS values.
T = Trace of Precipitation, MM = Missing Value Source: NWS Daily Summary

Daily Weather History Graph

Daily Weather History Graph

Search for Another Location

Airport or City:

Trip Planner

Search our weather history database for the weather conditions in past years. The results will help you decide how hot, cold, wet, or windy it might be!

Date:

Astronomy

May. 19, 2013 Rise Set
Actual Time 5:35 AM EDT 8:10 PM EDT
Civil Twilight 5:03 AM EDT 8:42 PM EDT
Nautical Twilight 4:24 AM EDT 9:22 PM EDT
Astronomical Twilight 3:39 AM EDT 10:06 PM EDT
Moon 2:10 PM EDT (5/19) 1:59 AM EDT (5/19)
Length of Visible Light 15h 39m
Length of Day
14h 35m
Waxing Gibbous, 65% of the Moon is Illuminated
May 19
Waxing Gibbous
May 25
Full
May 31
Last Quarter
Jun 8
New
Jun 16
First Quarter

Hourly Weather History & Observations

Time (EDT) Temp. Dew Point Humidity Pressure Visibility Wind Dir Wind Speed Gust Speed Precip Events Conditions
12:51 AM 57.9 °F 50.0 °F 75% 30.30 in 10.0 mi South 4.6 mph - N/A   Overcast
1:19 AM 57.2 °F 50.0 °F 77% 30.28 in 10.0 mi South 5.8 mph - N/A   Overcast
1:51 AM 57.9 °F 51.1 °F 78% 30.28 in 10.0 mi South 6.9 mph - N/A   Overcast
2:51 AM 57.0 °F 54.0 °F 89% 30.28 in 10.0 mi South 5.8 mph - 0.00 in Rain Light Rain
2:58 AM 57.2 °F 55.4 °F 94% 30.28 in 5.0 mi South 6.9 mph - 0.00 in Rain Light Rain
3:51 AM 55.4 °F 53.6 °F 94% 30.27 in 5.0 mi South 9.2 mph - N/A Rain Light Rain
4:07 AM 55.4 °F 53.6 °F 94% 30.27 in 10.0 mi South 8.1 mph - 0.00 in Rain Light Rain
4:14 AM 55.4 °F 53.6 °F 94% 30.27 in 10.0 mi South 9.2 mph - 0.00 in Rain Light Rain
4:21 AM 55.4 °F 53.6 °F 94% 30.28 in 8.0 mi South 6.9 mph - 0.00 in Rain Light Rain
4:51 AM 55.0 °F 53.1 °F 93% 30.28 in 8.0 mi South 5.8 mph - 0.01 in Rain Light Rain
4:58 AM 55.4 °F 53.6 °F 94% 30.27 in 10.0 mi South 4.6 mph - 0.00 in Rain Light Rain
5:19 AM 55.4 °F 53.6 °F 94% 30.27 in 8.0 mi South 3.5 mph - 0.00 in Rain Light Rain
5:51 AM 55.9 °F 54.0 °F 93% 30.28 in 8.0 mi SSE 3.5 mph - 0.00 in Rain Light Rain
6:10 AM 57.2 °F 53.6 °F 88% 30.29 in 8.0 mi Calm Calm - 0.00 in Rain Light Rain
6:51 AM 55.9 °F 54.0 °F 93% 30.30 in 8.0 mi South 9.2 mph - 0.00 in Rain Light Rain
7:24 AM 55.4 °F 53.6 °F 94% 30.30 in 4.0 mi South 3.5 mph - 0.01 in Rain Light Rain
7:49 AM 55.4 °F 55.4 °F 100% 30.30 in 2.5 mi SE 4.6 mph - 0.02 in Rain Light Rain
7:51 AM 55.9 °F 55.0 °F 97% 30.30 in 2.5 mi SE 4.6 mph - 0.02 in Rain Light Rain
8:51 AM 57.0 °F 55.0 °F 93% 30.31 in 5.0 mi Variable 5.8 mph - 0.01 in Rain Light Rain
9:18 AM 57.2 °F 55.4 °F 94% 30.31 in 2.5 mi SE 6.9 mph - 0.01 in Rain Light Rain
9:38 AM 57.2 °F 55.4 °F 94% 30.31 in 1.5 mi SE 5.8 mph - 0.02 in Rain Light Rain
9:51 AM 57.0 °F 55.9 °F 96% 30.31 in 2.0 mi SE 6.9 mph - 0.03 in Rain Light Rain
10:30 AM 57.2 °F 55.4 °F 94% 30.31 in 3.0 mi SE 10.4 mph - N/A Rain Light Rain
10:33 AM 57.2 °F 55.4 °F 94% 30.31 in 3.0 mi SE 11.5 mph 16.1 mph 0.01 in Rain Light Rain
10:51 AM 57.9 °F 55.9 °F 93% 30.31 in 3.0 mi SE 9.2 mph 21.9 mph 0.02 in Rain Light Rain
10:57 AM 57.2 °F 55.4 °F 94% 30.31 in 2.5 mi SE 9.2 mph 18.4 mph 0.00 in Rain Light Rain
11:31 AM 57.2 °F 55.4 °F 94% 30.31 in 3.0 mi SSE 11.5 mph - 0.01 in Rain Light Rain
11:41 AM 57.2 °F 55.4 °F 94% 30.30 in 4.0 mi SE 10.4 mph 21.9 mph 0.02 in Rain Light Rain
11:51 AM 57.9 °F 55.9 °F 93% 30.30 in 4.0 mi SE 10.4 mph 18.4 mph 0.02 in Rain Light Rain
11:58 AM 57.2 °F 55.4 °F 94% 30.30 in 3.0 mi SE 9.2 mph 17.3 mph 0.00 in Rain Light Rain
12:08 PM 57.2 °F 55.4 °F 94% 30.30 in 4.0 mi SE 9.2 mph - 0.00 in Rain Light Rain
12:16 PM 59.0 °F 55.4 °F 88% 30.29 in 3.0 mi SSE 11.5 mph 38.0 mph 0.00 in Rain Light Rain
12:44 PM 57.2 °F 57.2 °F 100% 30.28 in 2.0 mi SE 6.9 mph - 0.02 in Rain Light Rain
12:51 PM 57.9 °F 57.0 °F 97% 30.28 in 2.0 mi SE 9.2 mph - 0.02 in Rain Light Rain
1:51 PM 59.0 °F 57.0 °F 93% 30.27 in 2.0 mi SE 10.4 mph 18.4 mph 0.03 in Rain Light Rain
1:58 PM 59.0 °F 57.2 °F 94% 30.26 in 3.0 mi SE 8.1 mph 19.6 mph 0.00 in Rain Light Rain
2:04 PM 59.0 °F 57.2 °F 94% 30.26 in 2.5 mi SE 6.9 mph - 0.00 in Rain Light Rain
2:25 PM 59.0 °F 57.2 °F 94% 30.26 in 2.5 mi SE 9.2 mph 17.3 mph 0.01 in Rain Light Rain
2:32 PM 59.0 °F 57.2 °F 94% 30.26 in 4.0 mi SE 8.1 mph 17.3 mph 0.02 in Rain Light Rain
2:38 PM 59.0 °F 57.2 °F 94% 30.26 in 2.5 mi SE 9.2 mph - 0.02 in Rain Light Rain
2:51 PM 59.0 °F 57.0 °F 93% 30.25 in 2.0 mi SE 9.2 mph 19.6 mph 0.02 in Rain Light Rain
3:51 PM 59.0 °F 57.0 °F 93% 30.23 in 2.0 mi SE 8.1 mph - 0.03 in Rain Light Rain
4:51 PM 57.9 °F 57.0 °F 97% 30.22 in 2.0 mi SE 5.8 mph - 0.02 in Rain Light Rain
5:51 PM 59.0 °F 57.0 °F 93% 30.21 in 2.0 mi ESE 5.8 mph - 0.01 in Rain Light Rain
6:51 PM 57.0 °F 57.0 °F 100% 30.21 in 2.0 mi East 6.9 mph - 0.01 in Rain Light Rain
7:47 PM 57.2 °F 57.2 °F 100% 30.20 in 1.5 mi ESE 4.6 mph - 0.01 in Rain Light Rain
7:51 PM 57.9 °F 57.0 °F 97% 30.20 in 1.5 mi SE 5.8 mph - 0.01 in Rain Light Rain
7:58 PM 57.2 °F 57.2 °F 100% 30.20 in 1.8 mi SE 4.6 mph - 0.00 in   Overcast
8:51 PM 57.9 °F 57.0 °F 97% 30.18 in 1.8 mi ESE 3.5 mph - 0.00 in   Overcast
8:58 PM 57.2 °F 57.2 °F 100% 30.18 in 2.5 mi ESE 3.5 mph - N/A   Overcast
9:15 PM 57.2 °F 57.2 °F 100% 30.18 in 3.0 mi Calm Calm - N/A   Overcast
9:51 PM 57.9 °F 57.9 °F 100% 30.19 in 3.0 mi Calm Calm - N/A   Overcast
9:58 PM 57.2 °F 57.2 °F 100% 30.19 in 3.0 mi East 4.6 mph - N/A   Overcast
10:37 PM 57.2 °F 57.2 °F 100% 30.19 in 2.5 mi Calm Calm - N/A   Overcast
10:49 PM 57.2 °F 57.2 °F 100% 30.19 in 3.0 mi Calm Calm - N/A   Overcast
10:51 PM 57.9 °F 57.9 °F 100% 30.19 in 2.5 mi Calm Calm - N/A   Overcast
11:51 PM 57.0 °F 57.0 °F 100% 30.17 in 2.5 mi East 3.5 mph - N/A   Overcast
11:58 PM 57.2 °F 57.2 °F 100% 30.17 in 4.0 mi Calm Calm - N/A   Overcast